Content
SEND FEEDBACK

Daily
Averages
Monthly
Summary
United States of America

SADLER, TEXAS


Home > North America > United States > Texas
Elevation: 720 feet     Latitude: 33 48N     Longitude: 096 51W

WEATHER
 
SELECT A DAY
Number of Records: 282,077;   Date Range: 1/1/95 - 12/18/14
 
SHARE

PRINT THIS DATA

[ ← Previous Day ]
WEATHER ALMANAC - FEBRUARY 13, 2013
[ Next Day → ]
[ °C ]   °F
Weather ElementAverageHighLow
Temperature42.5 °F53.6 °F (3:35 pm)37.4 °F (12:35 am)
Dewpoint35.5 °F37.4 °F (1:35 pm)33.8 °F (7:15 am)
Humidity77.8 %93 % (12:35 am)54 % (3:35 pm)
Barometer30.07 in30.15 in (10:15 am)30.02 in (4:35 pm)
Wind Speed7.6 mph13.8 mph (1:35 am)
Wind Gust17.3 mph (1:15 am)
Weather ElementAverage
Visibility10 mi
Wind DirectionSW (230.6 °)

Weather ElementTotal
Precipitation---
Heating Degree Days19.5 (Base 65)
Averaged from 71 records on February 13, 2013
WEATHER CONDITIONS BREAKOUT
WIND DIRECTION BREAKOUT
WEATHER BY HOUR - FEBRUARY 13, 2013
[ °C ]   °F
Local TimeTemperatureDewpointHumidityBarometerVisibilityWind DirectionWind SpeedGust SpeedPrecipitationEventsConditions
12:35 AM37.4 °F35.6 °F93 %30.05 in10.0 miNW (320°)11.5 mphOvercast
12:55 AM37.4 °F35.6 °F93 %30.05 in10.0 miNW (320°)10.4 mphOvercast
1:15 AM37.4 °F35.6 °F93 %30.05 in10.0 miNNW (330°)12.7 mph17.3 mphOvercast
1:35 AM37.4 °F35.6 °F93 %30.05 in10.0 miNW (320°)13.8 mphOvercast
1:55 AM37.4 °F35.6 °F93 %30.05 in10.0 miNW (310°)12.7 mphOvercast
2:15 AM37.4 °F35.6 °F93 %30.06 in10.0 miNW (310°)12.7 mphOvercast
2:35 AM37.4 °F35.6 °F93 %30.06 in10.0 miNW (310°)11.5 mphOvercast
2:55 AM37.4 °F35.6 °F93 %30.06 in10.0 miNW (310°)13.8 mphOvercast
3:15 AM37.4 °F35.6 °F93 %30.07 in10.0 miNW (310°)13.8 mphOvercast
3:35 AM37.4 °F35.6 °F93 %30.07 in10.0 miNW (310°)11.5 mphOvercast
3:55 AM37.4 °F35.6 °F93 %30.07 in10.0 miNW (320°)5.8 mphOvercast
4:15 AM37.4 °F35.6 °F93 %30.07 in10.0 miNW (310°)8.1 mphOvercast
4:35 AM37.4 °F35.6 °F93 %30.08 in10.0 miNW (310°)6.9 mphOvercast
4:55 AM37.4 °F35.6 °F93 %30.08 in10.0 miNW (320°)9.2 mphOvercast
5:15 AM37.4 °F35.6 °F93 %30.08 in10.0 miNW (310°)6.9 mphOvercast
5:35 AM37.4 °F35.6 °F93 %30.08 in10.0 miWNW (290°)4.6 mphOvercast
5:55 AM37.4 °F35.6 °F93 %30.09 in7.0 miWNW (290°)6.9 mphOvercast
6:15 AM37.4 °F35.6 °F93 %30.09 in10.0 miWNW (300°)9.2 mphOvercast
6:35 AM37.4 °F35.6 °F93 %30.09 in10.0 miWNW (300°)12.7 mphOvercast
6:55 AM37.4 °F35.6 °F93 %30.10 in10.0 miWNW (300°)6.9 mphOvercast
7:15 AM37.4 °F33.8 °F87 %30.10 in10.0 miWNW (300°)9.2 mphOvercast
7:35 AM37.4 °F33.8 °F87 %30.10 in10.0 miWNW (300°)10.4 mphOvercast
7:55 AM37.4 °F33.8 °F87 %30.11 in10.0 miWNW (290°)9.2 mphOvercast
8:15 AM37.4 °F33.8 °F87 %30.12 in10.0 miWNW (300°)10.4 mphOvercast
8:35 AM37.4 °F33.8 °F87 %30.13 in10.0 miWNW (300°)8.1 mphOvercast
8:55 AM37.4 °F35.6 °F93 %30.13 in10.0 miWNW (290°)9.2 mphOvercast
9:15 AM37.4 °F33.8 °F87 %30.14 in10.0 miNW (310°)6.9 mphOvercast
9:35 AM37.4 °F35.6 °F93 %30.14 in10.0 miWNW (290°)9.2 mphOvercast
9:55 AM39.2 °F33.8 °F81 %30.14 in10.0 miNNW (330°)4.6 mphOvercast
10:15 AM41.0 °F35.6 °F81 %30.15 in10.0 miWest (260°)5.8 mphOvercast
10:35 AM39.2 °F33.8 °F81 %30.14 in10.0 miCalmMostly Cloudy
10:55 AM41.0 °F35.6 °F81 %30.14 in10.0 miCalmScattered Clouds
11:15 AM41.0 °F35.6 °F81 %30.14 in10.0 miWSW (250°)4.6 mphScattered Clouds
11:35 AM42.8 °F35.6 °F76 %30.14 in10.0 miSouth (190°)4.6 mphClear
11:55 AM42.8 °F35.6 °F76 %30.13 in10.0 miCalmClear
12:15 PM44.6 °F35.6 °F71 %30.13 in10.0 miSW (220°)3.5 mphClear
12:35 PM46.4 °F35.6 °F66 %30.12 in10.0 miWSW (240°)6.9 mphClear
12:55 PM46.4 °F35.6 °F66 %30.10 in10.0 miWSW (240°)3.5 mphClear
1:15 PM48.2 °F35.6 °F62 %30.09 in10.0 miCalmClear
1:35 PM50.0 °F37.4 °F62 %30.08 in10.0 miWSW (240°)5.8 mphClear
1:55 PM50.0 °F37.4 °F62 %30.07 in10.0 miSSW (200°)5.8 mphClear
2:15 PM50.0 °F37.4 °F62 %30.06 in10.0 miSW (220°)8.1 mphClear
2:35 PM51.8 °F37.4 °F58 %30.05 in10.0 miSouth (190°)6.9 mphClear
2:55 PM51.8 °F37.4 °F58 %30.05 in10.0 miWSW (250°)3.5 mphClear
3:15 PM51.8 °F37.4 °F58 %30.04 in10.0 miSSW (200°)8.1 mphClear
3:35 PM53.6 °F37.4 °F54 %30.04 in10.0 miSSW (210°)9.2 mphClear
3:55 PM53.6 °F37.4 °F54 %30.03 in10.0 miSSW (200°)10.4 mphClear
4:15 PM53.6 °F37.4 °F54 %30.03 in10.0 miSSW (210°)5.8 mphClear
4:35 PM53.6 °F37.4 °F54 %30.02 in10.0 miSSW (200°)9.2 mphClear
4:55 PM53.6 °F37.4 °F54 %30.02 in10.0 miSouth (190°)9.2 mphClear
5:15 PM51.8 °F37.4 °F58 %30.02 in10.0 miSouth (190°)8.1 mphClear
5:35 PM51.8 °F37.4 °F58 %30.02 in10.0 miSouth (180°)8.1 mphClear
5:55 PM50.0 °F37.4 °F62 %30.02 in10.0 miSouth (190°)6.9 mphClear
6:15 PM48.2 °F37.4 °F66 %30.02 in10.0 miSouth (190°)8.1 mphClear
6:35 PM46.4 °F37.4 °F71 %30.02 in10.0 miSouth (190°)6.9 mphClear
6:55 PM44.6 °F35.6 °F71 %30.02 in10.0 miSouth (180°)5.8 mphClear
7:15 PM44.6 °F35.6 °F71 %30.02 in10.0 miSouth (170°)5.8 mphClear
7:35 PM44.6 °F35.6 °F71 %30.03 in10.0 miSouth (180°)4.6 mphClear
7:55 PM42.8 °F35.6 °F76 %30.03 in10.0 miSouth (170°)6.9 mphClear
8:15 PM42.8 °F35.6 °F76 %30.03 in10.0 miSouth (170°)6.9 mphClear
8:35 PM42.8 °F35.6 °F76 %30.04 in10.0 miSouth (170°)6.9 mphClear
8:55 PM42.8 °F33.8 °F70 %30.04 in10.0 miSouth (180°)6.9 mphClear
9:15 PM41.0 °F33.8 °F76 %30.04 in10.0 miSouth (170°)8.1 mphClear
9:35 PM42.8 °F33.8 °F70 %30.04 in10.0 miSouth (170°)8.1 mphClear
9:55 PM42.8 °F33.8 °F70 %30.04 in10.0 miSouth (170°)9.2 mphClear
10:15 PM41.0 °F33.8 °F76 %30.04 in10.0 miSouth (170°)9.2 mphClear
10:35 PM41.0 °F33.8 °F76 %30.04 in10.0 miSouth (180°)8.1 mphClear
10:55 PM41.0 °F33.8 °F76 %30.05 in10.0 miSouth (190°)6.9 mphClear
11:15 PM39.2 °F33.8 °F81 %30.05 in10.0 miSouth (170°)8.1 mphClear
11:35 PM41.0 °F33.8 °F76 %30.05 in10.0 miSouth (180°)6.9 mphClear
11:55 PM41.0 °F33.8 °F76 %30.05 in10.0 miSouth (190°)5.8 mphClear
Hourly data recorded from KGYI, located miles away from Sadler, Texas







STORIES FROM OUR PARTNERS